Tracking 19969 objects as of 12-Nov-2019
Live streaming from Space Station
objects crossing your sky now
Track the group of recently launched Starlink satellites

COSMOS 1541

Track COSMOS 1541 now!
COSMOS 1541 is classified as:


NORAD ID: 14790
Int'l Code: 1984-024A
Perigee: 7,911.6 km
Apogee: 32,501.8 km
Inclination: 71.6 °
Period: 718.7 minutes
Semi major axis: 26577 km
RCS: 7.9433 m2 (large)
Launch date: March 6, 1984
Source: Commonwealth of Independent States (former USSR) (CIS)
Launch site: PLESETSK MISSILE AND SPACE COMPLEX (PKMTR)
aabbcc
Your satellite tracking list
Your tracking list is empty




NASA's NSSDC Master Catalog

Two Line Element Set (TLE):
1 14790U 84024A   19315.80585867  .00000082  00000-0  00000+0 0  9994
2 14790  71.5853 241.2014 4626105  53.0811  75.9178  2.00367302233613
Source of the keplerian elements: AFSPC